When you browse on this site, cookies collect data to enhance your experience and personalize the content and advertising you see.
Visit our Privacy Policy to learn more. By continuing to use the site, you agree to this use of cookies and data.
  • In Spain
  • List of Countries
  • For 7 days
  • Water Temperature
  • Weather Map
  • Weather Widgets
  • user-avatar
    Login

    Hourly Weather Buenos Aires

    Today, 1 June, Monday

    Time Temperature Precipitation Wind Pressure Humidity
    00:00 +11°C° 0 mm 4 mps 764 mmHg 58%
    01:00 +10°C° 0 mm 4 mps 764 mmHg 61%
    02:00 +10°C° 0 mm 4 mps 764 mmHg 64%
    03:00 +8°C° 0 mm 4 mps 764 mmHg 67%
    04:00 +8°C° 0 mm 4 mps 764 mmHg 70%
    05:00 +7°C° 0 mm 4 mps 764 mmHg 73%
    06:00 +7°C° 0 mm 4 mps 765 mmHg 73%
    07:00 +7°C° 0 mm 4 mps 766 mmHg 73%
    08:00 +7°C° 0 mm 4 mps 766 mmHg 73%
    09:00 +8°C° 0 mm 4 mps 766 mmHg 66%
    10:00 +11°C° 0 mm 4 mps 766 mmHg 60%
    11:00 +12°C° 0 mm 3 mps 766 mmHg 53%
    12:00 +13°C° 0 mm 3 mps 766 mmHg 50%
    13:00 +14°C° 0 mm 2 mps 765 mmHg 47%
    14:00 +15°C° 0 mm 2 mps 765 mmHg 44%
    15:00 +14°C° 0 mm 1 mps 765 mmHg 46%
    16:00 +13°C° 0 mm 1 mps 765 mmHg 48%
    17:00 +13°C° 0 mm 1 mps 765 mmHg 50%
    18:00 +12°C° 0 mm 1 mps 765 mmHg 52%
    19:00 +11°C° 0 mm 0 mps 765 mmHg 54%
    20:00 +11°C° 0 mm 0 mps 765 mmHg 55%
    21:00 +11°C° 0 mm 1 mps 765 mmHg 56%
    22:00 +11°C° 0 mm 1 mps 766 mmHg 57%
    23:00 +11°C° 0 mm 1 mps 766 mmHg 58%

    Tomorrow, 2 June, Tuesday

    Time Temperature Precipitation Wind Pressure Humidity
    00:00 +10°C° 0 mm 2 mps 765 mmHg 59%
    01:00 +9°C° 0 mm 2 mps 765 mmHg 60%
    02:00 +9°C° 0 mm 2 mps 765 mmHg 61%
    03:00 +9°C° 0 mm 3 mps 765 mmHg 62%
    04:00 +9°C° 0 mm 3 mps 765 mmHg 64%
    05:00 +8°C° 0 mm 3 mps 765 mmHg 65%
    06:00 +8°C° 0 mm 3 mps 765 mmHg 65%
    07:00 +9°C° 0 mm 3 mps 765 mmHg 65%
    08:00 +9°C° 0 mm 3 mps 765 mmHg 66%
    09:00 +10°C° 0 mm 3 mps 765 mmHg 60%
    10:00 +11°C° 0 mm 4 mps 765 mmHg 54%
    11:00 +13°C° 0 mm 4 mps 764 mmHg 49%
    12:00 +14°C° 0 mm 4 mps 764 mmHg 45%
    13:00 +14°C° 0 mm 4 mps 763 mmHg 42%
    14:00 +15°C° 0 mm 4 mps 762 mmHg 39%
    15:00 +15°C° 0 mm 4 mps 762 mmHg 41%
    16:00 +14°C° 0 mm 4 mps 762 mmHg 44%
    17:00 +13°C° 0 mm 4 mps 762 mmHg 46%
    18:00 +13°C° 0 mm 4 mps 762 mmHg 49%
    19:00 +13°C° 0 mm 4 mps 762 mmHg 52%
    20:00 +12°C° 0 mm 4 mps 762 mmHg 55%
    21:00 +12°C° 0 mm 4 mps 762 mmHg 58%
    22:00 +11°C° 0 mm 4 mps 762 mmHg 61%
    23:00 +11°C° 0 mm 4 mps 762 mmHg 63%

    Day after tomorrow, 3 June, Wednesday

    Time Temperature Precipitation Wind Pressure Humidity
    00:00 +11°C° 0 mm 4 mps 762 mmHg 65%
    01:00 +11°C° 0 mm 4 mps 762 mmHg 66%
    02:00 +10°C° 0 mm 3 mps 762 mmHg 68%
    03:00 +10°C° 0 mm 3 mps 762 mmHg 68%
    04:00 +10°C° 0 mm 3 mps 762 mmHg 69%
    05:00 +10°C° 0 mm 3 mps 762 mmHg 70%
    06:00 +10°C° 0 mm 3 mps 763 mmHg 69%
    07:00 +10°C° 0 mm 3 mps 763 mmHg 69%
    08:00 +10°C° 0 mm 3 mps 764 mmHg 69%
    09:00 +11°C° 0 mm 3 mps 764 mmHg 64%
    10:00 +13°C° 0 mm 3 mps 765 mmHg 59%
    11:00 +15°C° 0 mm 2 mps 765 mmHg 54%
    12:00 +14°C° 0 mm 3 mps 764 mmHg 52%
    13:00 +16°C° 0 mm 3 mps 764 mmHg 51%
    14:00 +15°C° 0 mm 4 mps 764 mmHg 49%
    15:00 +15°C° 0 mm 5 mps 764 mmHg 51%
    16:00 +14°C° 0 mm 5 mps 764 mmHg 54%
    17:00 +13°C° 0 mm 6 mps 764 mmHg 56%
    18:00 +13°C° 0 mm 6 mps 765 mmHg 57%
    19:00 +13°C° 0 mm 6 mps 765 mmHg 58%
    20:00 +11°C° 0 mm 6 mps 766 mmHg 59%
    21:00 +11°C° 0 mm 6 mps 766 mmHg 63%
    22:00 +11°C° 0 mm 6 mps 766 mmHg 66%
    23:00 +11°C° 0 mm 6 mps 766 mmHg 70%

    4 June, Thursday

    Time Temperature Precipitation Wind Pressure Humidity
    00:00 +11°C° 0 mm 6 mps 766 mmHg 73%
    01:00 +11°C° 0 mm 6 mps 766 mmHg 75%
    02:00 +11°C° 0 mm 6 mps 766 mmHg 78%
    03:00 +10°C° 0 mm 5 mps 766 mmHg 79%
    04:00 +10°C° 0 mm 5 mps 766 mmHg 81%
    05:00 +10°C° 0 mm 5 mps 766 mmHg 82%
    06:00 +10°C° 0 mm 5 mps 767 mmHg 80%
    07:00 +12°C° 0 mm 5 mps 767 mmHg 79%
    08:00 +11°C° 0 mm 6 mps 767 mmHg 77%
    09:00 +13°C° 0 mm 6 mps 767 mmHg 73%
    10:00 +14°C° 0 mm 6 mps 767 mmHg 69%
    11:00 +15°C° 0 mm 7 mps 767 mmHg 65%
    12:00 +15°C° 0 mm 7 mps 766 mmHg 64%
    13:00 +16°C° 0 mm 7 mps 766 mmHg 64%
    14:00 +16°C° 0 mm 7 mps 765 mmHg 63%
    15:00 +16°C° 0 mm 7 mps 765 mmHg 66%
    16:00 +15°C° 0 mm 7 mps 765 mmHg 68%
    17:00 +15°C° 0 mm 7 mps 764 mmHg 71%
    18:00 +13°C° 0 mm 8 mps 764 mmHg 73%
    19:00 +13°C° 0 mm 8 mps 764 mmHg 76%
    20:00 +13°C° 0 mm 9 mps 763 mmHg 79%
    21:00 +13°C° 0 mm 8 mps 763 mmHg 78%
    22:00 +13°C° 0 mm 8 mps 763 mmHg 77%
    23:00 +13°C° 0 mm 8 mps 763 mmHg 76%

    5 June, Friday

    Time Temperature Precipitation Wind Pressure Humidity
    00:00 +13°C° 0 mm 8 mps 762 mmHg 76%
    01:00 +13°C° 0 mm 8 mps 762 mmHg 76%
    02:00 +13°C° 0 mm 9 mps 761 mmHg 76%
    03:00 +13°C° 0.1 mm 9 mps 760 mmHg 77%
    04:00 +13°C° 0.1 mm 9 mps 759 mmHg 78%
    05:00 +13°C° 0.1 mm 10 mps 759 mmHg 80%
    06:00 +13°C° 1.6 mm 10 mps 758 mmHg 81%
    07:00 +13°C° 1.6 mm 10 mps 757 mmHg 82%
    08:00 +13°C° 1.6 mm 11 mps 757 mmHg 83%
    09:00 +13°C° 1.7 mm 11 mps 756 mmHg 84%
    10:00 +13°C° 1.7 mm 11 mps 756 mmHg 85%
    11:00 +13°C° 1.7 mm 12 mps 756 mmHg 86%
    12:00 +14°C° 3.9 mm 11 mps 755 mmHg 87%
    13:00 +14°C° 3.9 mm 11 mps 754 mmHg 88%
    14:00 +14°C° 3.9 mm 11 mps 754 mmHg 89%
    15:00 +14°C° 1.3 mm 10 mps 754 mmHg 89%
    16:00 +15°C° 1.3 mm 9 mps 754 mmHg 89%
    17:00 +15°C° 1.3 mm 8 mps 754 mmHg 90%
    18:00 +15°C° 0.5 mm 9 mps 755 mmHg 88%
    19:00 +15°C° 0.5 mm 9 mps 755 mmHg 87%
    20:00 +16°C° 0.5 mm 9 mps 755 mmHg 85%
    21:00 +16°C° 0.1 mm 9 mps 756 mmHg 85%
    22:00 +16°C° 0.1 mm 9 mps 756 mmHg 85%
    23:00 +15°C° 0.1 mm 9 mps 756 mmHg 86%

    6 June, Saturday

    Time Temperature Precipitation Wind Pressure Humidity
    00:00 +15°C° 0.1 mm 8 mps 757 mmHg 86%
    01:00 +15°C° 0.1 mm 7 mps 757 mmHg 86%
    02:00 +15°C° 0.1 mm 6 mps 757 mmHg 87%
    03:00 +15°C° 0 mm 6 mps 757 mmHg 87%
    04:00 +15°C° 0 mm 5 mps 757 mmHg 87%
    05:00 +14°C° 0 mm 5 mps 757 mmHg 87%
    06:00 +14°C° 0 mm 5 mps 758 mmHg 87%
    07:00 +14°C° 0 mm 4 mps 758 mmHg 87%
    08:00 +14°C° 0 mm 4 mps 759 mmHg 87%
    09:00 +14°C° 0 mm 3 mps 759 mmHg 85%
    10:00 +16°C° 0 mm 3 mps 759 mmHg 82%
    11:00 +17°C° 0 mm 2 mps 759 mmHg 79%
    12:00 +17°C° 0 mm 2 mps 759 mmHg 79%
    13:00 +17°C° 0 mm 2 mps 758 mmHg 79%
    14:00 +17°C° 0 mm 2 mps 758 mmHg 79%
    15:00 +17°C° 0 mm 2 mps 758 mmHg 80%
    16:00 +17°C° 0 mm 2 mps 758 mmHg 82%
    17:00 +17°C° 0 mm 2 mps 759 mmHg 83%
    18:00 +18°C° 0 mm 1 mps 759 mmHg 83%
    19:00 +18°C° 0 mm 1 mps 759 mmHg 83%
    20:00 +18°C° 0 mm 1 mps 759 mmHg 83%
    21:00 +18°C° 0 mm 1 mps 760 mmHg 83%
    22:00 +18°C° 0 mm 1 mps 760 mmHg 83%
    23:00 +16°C° 0 mm 0 mps 760 mmHg 83%
    Show more